Location: Baia Mare
(47.6567°N, 23.5850°E)
Time: 14:17:42
(UTC+03:00)

ISS - Pass Details

Date: 10 July 2019
Orbit: 409 x 418 km, 51.6° (Epoch: 21 July)

Event Time Altitude Azimuth Distance (km) Brightness Sun altitude
Exits shadow 04:14:45 - 276° (W) 2,042 -0.6 -11.0°
Reaches altitude 10° 04:16:10 10° 282° (WNW) 1,480 -1.2 -10.8°
Maximum altitude 04:19:20 41° 354° (N) 613 -2.5 -10.5°
Drops below altitude 10° 04:22:30 10° 67° (ENE) 1,478 0.1 -10.2°
Sets 04:24:40 0° 75° (ENE) 2,339 1.0 -9.9°
